Regional Weather Roundup
Issued by NWS Sterling, VA

Home | Current Version | Previous Version | Graphics & Text | Print | Product List | Glossary On
Versions: 1 2 3 4 5 6 7 8 9 10 11 12 13 14 15 16 17 18 19 20 21 22 23 24 25 26 27 28 29 30 31 32 33 34 35 36 37 38 39 40 41 42 43 44 45 46 47 48 49 50
000
ASUS41 KLWX 060210
RWRLWX

REGIONAL WEATHER ROUNDUP
NATIONAL WEATHER SERVICE BALTIMORE MD/WASHINGTON DC
1000 PM EDT SUN JUL 05 2015

Note: "FAIR" indicates few or no clouds below 12,000 feet
with no significant weather and/or obstructions to visibility.
 TC=TEMPERATURE CELSIUS

 * =Non NWS site. Station does not report precipitation (e.g. rain,
    snow, etc.), thunder, or fog.

DCZ001-MDZ009-015-VAZ040>042-051-053>054-060300-
WASHINGTON METRO

CITY           SKY/WX    TMP DP  RH WIND       PRES   REMARKS
WASHINGTON NAT CLOUDY    79  70  74 SE3       30.13R
DULLES         CLOUDY    76  70  82 SE3       30.12R
ANDREWS AFB    MOCLDY    73  73  99 E5        30.12S
FT BELVOIR     CLOUDY    74  71  91 CALM      30.12S
QUANTICO       LGT RAIN  77  69  76 S6        30.13S
COLLEGE PARK*  MOCLDY    73  70  88 CALM      30.12S
LEESBURG*      MOCLDY    79  73  83 S6        30.14R
GAITHERSBURG*  CLOUDY    73  68  83 E3        30.17S

$$

MDZ006>007-011-014-060300-
BALTIMORE METRO

CITY           SKY/WX    TMP DP  RH WIND       PRES   REMARKS
BWI AIRPORT    MOCLDY    76  68  76 E5        30.13R
MD SCIENCE CTR   N/A     78  68  71 MISG      30.14R
MARTIN STATE   MOCLDY    75  72  88 CALM      30.14R
ANNAPOLIS      CLOUDY    76  70  82 CALM      30.13R
FORT MEADE*    MOCLDY    70  68  94 CALM      30.16R

$$

MDZ012-015-019>023-060300-
MARYLAND EASTERN SHORE

CITY           SKY/WX    TMP DP  RH WIND       PRES   REMARKS
OCEAN CITY     CLOUDY    75  71  87 SE7       30.14S
SALISBURY      CLOUDY    72  70  93 CALM      30.14R
BAY BRIDGE AP*   N/A     77  70  78 CALM      30.13R
CAMBRIDGE*     CLOUDY    77  70  78 E3        30.13R
EASTON*        CLOUDY   N/A N/A N/A CALM      30.17

$$

MDZ017>025-060300-
SOUTHERN MARYLAND

CITY           SKY/WX    TMP DP  RH WIND       PRES   REMARKS
PATUXENT RIVER CLOUDY    77  72  84 S6        30.13R
ST INIGOES     NOT AVBL
LEONARDTOWN*   CLOUDY    73  70  88 CALM      30.15R

$$

MDZ003>005-060300-
NORTH CENTRAL MARYLAND

CITY           SKY/WX    TMP DP  RH WIND       PRES   REMARKS
FREDERICK*     CLOUDY    77  72  83 SE5       30.14S
HAGERSTOWN APT CLOUDY    76  67  73 E5        30.13S
WESTMINSTER*   CLOUDY    73  70  88 SE3       30.14F

$$

MDZ501>502-060300-
WESTERN MARYLAND

CITY           SKY/WX    TMP DP  RH WIND       PRES   REMARKS
OAKLAND*       CLOUDY    64 N/A N/A E12       30.19S FOG
CUMBERLAND*    CLOUDY    73  70  88 CALM      30.15S

$$

VAZ025>031-060300-
SHENANDOAH VALLEY

CITY           SKY/WX    TMP DP  RH WIND       PRES   REMARKS
WINCHESTER*    CLOUDY    73  70  88 CALM      30.13R
FRONT ROYAL*   FAIR      72  68  88 CALM      30.11S
LURAY*         FAIR      73  70  88 CALM      30.13R
NEW MARKET*    FAIR      71  69  94 CALM      30.11S
STAUNTON*      RAIN      74  71  89 CALM      30.16R
WAYNESBORO*    CLOUDY    71  69  95 S6        30.15S

$$

WVZ021-048>050-054>055-060300-
EASTERN WEST VIRGINIA PANHANDLE

CITY           SKY/WX    TMP DP  RH WIND       PRES   REMARKS
MARTINSBURG    CLOUDY    73  69  87 CALM      30.13R
PETERSBURG*    DRIZZLE   71  67  86 CALM      30.13R

$$

VAZ036>039-050-060300-
CENTRAL FOOTHILLS

CITY           SKY/WX    TMP DP  RH WIND       PRES   REMARKS
CHARLOTTESVILL RAIN      75  71  87 CALM      30.12R FOG
CULPEPER*      HVY RAIN  70  68  94 S6        30.14R
ORANGE*        CLOUDY    77  72  83 CALM      30.14R
GORDONSVILLE*  CLOUDY    73  72  94 S3        30.11S
WARRENTON*     RAIN      73  72  96 S3        30.13R

$$

VAZ055>057-060300-
NORTH AND CENTRAL PIEDMONT

CITY           SKY/WX    TMP DP  RH WIND       PRES   REMARKS
FREDERICKSBRG* CLOUDY    77  77 100 CALM      30.12R
STAFFORD*      LGT RAIN  73  70  92 CALM      30.16S

$$

NCZ024-NYZ072-PAZ021-071-VAZ022-071-060300-
OTHER REGIONAL OBSERVATIONS

CITY           SKY/WX    TMP DP  RH WIND       PRES   REMARKS
NEW YORK CITY  PTCLDY    75  62  64 VRB3      30.16R
PHILADELPHIA   MOCLDY    77  67  71 S7        30.14R
PITTSBURGH     CLOUDY    76  59  55 NE7       30.10R
ROANOKE        CLOUDY    68  67  96 CALM      30.13R
RICHMOND       CLOUDY    74  71  91 SE6       30.12R
RALEIGH        LGT RAIN  70  68  94 CALM      30.12F

$$

ANZ530>537-060300-
MARINE OBSERVATIONS

STATION/POSITION TIME  TEMP    WIND        PRES
                       AIR SEA DIR/SP/G
                 (UTC) (F)     (DEG/KT/KT) (MB)
THOMAS PT LIGHT  NOT AVBL
BALT KEY BRIDGE  0100   78     100/  5/  5 1019.8R
COVE POINT       0100   78     180/  7/  9 1020.3F
LEWISETTA        0100   78 81  170/  4/  5 1019.4F
SOLOMONS ISLAND  0100      82                N/A
PINEY POINT      0100          170/  8/  9   N/A

$$



USA.gov is the U.S. government's official web portal to all federal, state and local government web resources and services.